Wind_Speed
13 13 13 13 14 14 14 13 14 15 15 15 15 15 14 14 12 12 12 12 12 12 12 12 12 11 11 10 9 8 6 4 3 3 4 4 6 7 8 10 11 12 13 14
12 12 13 13 13 14 14 14 14 14 15 15 15 15 14 13 12 12 12 12 13 13 13 13 12 12 12 11 10 9 7 5 4 4 4 4 5 7 8 9 10 11 12 13
12 12 13 13 13 13 14 14 14 14 14 15 15 15 14 14 13 13 12 12 12 13 13 13 13 13 12 11 11 9 8 6 5 4 4 4 4 5 7 8 9 11 11 12
13 13 13 13 13 13 14 14 15 15 15 15 16 15 15 15 15 14 13 13 13 13 14 14 14 13 13 12 11 10 9 7 6 4 4 4 4 5 6 7 8 9 10 11
13 13 13 13 13 14 13 14 14 15 16 16 17 16 15 15 15 14 14 14 14 15 15 15 15 14 14 14 12 11 10 8 7 5 4 4 4 4 5 6 7 8 9 10
14 14 14 13 14 14 13 14 14 15 16 16 16 17 15 15 14 14 15 15 15 16 16 16 16 15 15 14 13 12 10 9 7 6 5 4 3 4 4 5 5 7 8 9
13 13 13 13 14 13 13 13 14 14 15 15 15 16 14 14 15 15 15 16 16 17 17 17 17 16 16 15 14 13 11 9 8 7 5 4 3 3 4 4 5 5 6 7
14 13 13 13 13 13 13 13 13 13 13 12 13 13 12 14 15 16 17 17 18 18 17 18 19 18 17 16 15 14 12 10 9 8 6 5 4 3 3 4 4 5 5 6
14 13 13 13 13 13 13 13 13 13 13 13 14 13 12 13 14 16 17 17 17 18 19 19 20 20 19 18 17 15 14 12 10 9 7 6 5 4 3 3 3 4 5 5
14 14 13 13 14 13 13 13 13 14 13 13 13 13 13 15 15 15 16 17 17 17 19 20 20 21 20 19 18 16 15 14 12 10 9 7 6 5 4 3 2 3 4 4
14 14 14 14 14 14 14 14 14 14 14 14 13 13 13 15 15 16 16 17 18 18 18 20 21 21 20 20 19 18 16 15 13 11 10 9 7 6 5 3 2 2 2 3
15 14 14 14 14 15 15 14 14 15 15 14 14 13 13 15 16 17 18 18 18 19 19 20 21 21 21 21 20 18 17 16 15 13 11 10 9 7 6 5 3 2 1 1
16 15 14 14 14 15 15 15 15 15 15 15 14 13 14 15 17 18 19 19 19 20 20 20 21 22 21 21 21 20 18 17 16 14 13 12 10 9 7 6 5 4 2 1
16 15 14 14 14 15 15 15 15 16 15 14 13 13 14 16 17 18 20 20 20 20 20 21 22 22 22 21 21 20 19 19 17 16 14 13 12 10 9 8 7 6 5 3
16 16 15 15 15 15 15 16 16 15 15 15 14 14 14 17 18 19 20 20 20 19 20 20 22 23 22 22 21 20 20 20 19 18 16 15 13 11 10 9 9 8 7 6
16 16 16 16 16 16 15 15 16 15 14 14 15 14 15 17 19 19 19 20 20 20 20 21 22 22 22 22 22 21 20 20 19 18 17 16 14 13 12 11 10 10 9 8
17 17 16 16 16 17 14 14 16 15 14 14 14 13 15 16 19 19 19 20 20 20 20 21 22 22 22 22 22 21 21 21 20 19 18 17 15 14 13 12 11 11 10 9
18 18 17 17 16 16 12 14 15 15 14 14 13 14 15 16 18 19 19 19 19 20 21 21 22 23 22 22 22 22 21 21 20 20 19 18 17 16 14 14 13 12 12 11
19 19 18 17 17 14 12 13 14 15 14 14 14 15 16 17 17 18 19 18 17 19 20 21 23 24 24 23 22 22 21 20 20 19 19 18 17 17 16 15 15 15 14 14
21 20 19 18 17 14 12 12 13 14 13 14 14 14 15 16 16 17 18 18 18 18 19 21 22 23 23 23 22 22 21 20 20 20 20 19 18 18 17 17 17 16 16 16
21 21 19 18 17 14 13 12 13 13 12 13 15 15 16 16 16 18 18 19 20 19 19 21 22 22 22 23 22 22 22 21 21 21 20 20 19 19 19 18 18 18 17 17
21 21 19 18 17 13 13 13 13 13 13 14 14 14 15 17 18 19 19 19 21 21 21 21 21 21 21 21 21 21 21 22 22 22 22 21 20 20 20 20 19 19 19 19
22 21 20 19 16 15 15 14 14 13 12 13 13 14 15 16 18 19 19 19 20 21 21 21 21 21 21 22 22 22 22 23 22 22 22 22 22 22 22 21 21 20 20 20
23 22 22 20 17 16 16 15 15 14 13 13 14 14 15 16 17 17 18 20 21 21 21 21 21 21 21 22 22 23 23 23 23 24 23 22 22 22 22 22 22 22 22 22
25 24 22 20 18 18 17 18 16 15 15 15 15 15 15 16 17 18 19 20 21 21 21 21 21 21 22 22 23 23 23 22 23 23 23 23 23 23 23 23 23 23 23 23
26 25 24 22 21 20 18 18 17 16 15 16 16 16 15 17 17 18 19 20 20 21 21 21 21 21 22 22 22 23 23 23 23 23 24 24 24 24 24 24 24 25 25 25
Wind_Direction
254 252 251 249 249 249 249 249 249 248 244 239 238 238 236 235 234 229 229 226 219 212 209 202 198 193 187 183 177 175 169 154 139 123 107 87 71 61 52 48 45 44 44 44
252 249 247 248 250 250 248 249 249 248 244 239 235 232 233 232 229 226 228 226 220 210 208 203 200 195 191 186 181 178 172 161 146 128 115 101 82 68 57 51 49 48 48 46
250 248 247 248 247 248 247 247 249 248 243 237 236 231 231 232 236 230 226 221 214 211 208 204 201 196 194 189 185 179 175 166 154 134 118 110 94 74 60 54 52 50 49 49
249 249 249 250 247 246 248 249 248 246 241 238 236 233 232 232 236 231 226 220 213 211 209 205 203 200 197 193 187 180 177 172 164 150 133 118 99 81 66 57 54 53 51 51
249 250 250 250 249 248 247 247 247 246 242 239 239 237 233 234 233 230 225 219 215 214 213 209 205 201 197 194 189 183 178 176 172 165 150 128 109 89 72 62 58 56 54 53
250 251 251 250 249 248 246 246 245 246 242 241 239 239 234 229 227 227 223 219 216 214 215 212 208 204 200 195 191 187 182 181 178 171 162 140 122 101 80 67 62 60 59 58
251 250 249 247 247 245 243 246 246 246 243 244 237 237 234 232 229 225 221 217 213 215 217 213 208 204 201 199 196 191 188 186 183 178 173 161 142 114 90 75 66 64 64 64
250 250 247 246 245 243 242 246 247 248 246 241 234 233 230 231 227 223 220 219 215 216 218 213 208 206 203 203 200 194 192 191 188 184 182 177 165 137 107 87 74 69 71 71
247 247 245 243 241 241 240 239 242 247 245 240 238 237 235 230 227 224 220 219 217 216 215 211 209 207 205 205 202 198 196 196 194 191 190 187 180 164 138 106 85 78 79 78
245 244 243 242 240 239 240 239 240 243 245 244 241 237 232 229 228 225 220 220 218 219 214 212 209 207 206 205 203 201 199 199 197 198 199 194 189 181 167 145 110 89 87 84
242 242 243 243 240 239 238 240 242 243 244 244 239 233 228 227 226 224 218 215 216 216 214 209 207 206 206 205 203 204 203 202 201 202 202 200 199 196 190 180 163 125 98 88
240 240 241 243 240 237 238 239 240 241 243 242 238 230 227 225 226 223 218 214 211 213 213 210 207 205 206 207 205 205 206 205 205 205 205 205 204 203 201 198 198 197 158 106
239 238 238 239 239 238 241 240 241 241 242 241 236 224 224 223 223 221 219 217 215 214 214 210 207 207 207 209 209 209 209 208 208 209 209 207 209 212 210 210 215 219 220 233
238 236 236 238 238 238 239 241 242 242 243 242 236 224 222 221 219 219 220 221 220 217 217 214 211 210 209 211 212 212 213 211 210 212 212 210 212 216 217 219 224 228 233 244
237 236 235 236 239 241 240 241 242 243 243 241 234 228 222 221 218 219 220 222 222 220 219 215 212 211 211 214 215 215 214 212 213 214 214 213 215 219 223 226 229 232 236 245
237 236 235 237 242 246 246 245 246 243 242 242 236 229 225 222 219 218 219 221 222 221 219 217 215 213 213 214 215 217 214 213 213 214 215 217 220 223 227 230 232 235 240 246
235 237 239 241 246 249 249 245 244 243 242 242 236 228 228 222 218 217 218 219 220 220 219 215 214 215 215 216 218 217 215 214 215 216 218 220 223 226 228 232 236 239 244 248
235 237 240 243 246 250 250 244 244 242 238 239 234 227 227 222 221 220 220 219 218 217 217 214 214 214 215 217 219 217 216 217 217 219 222 223 227 229 231 234 237 241 247 251
234 235 238 242 247 247 245 246 245 243 239 237 232 228 231 226 222 218 217 215 213 214 216 217 216 216 219 219 219 218 218 219 220 223 225 225 228 231 235 238 241 244 248 252
233 234 237 241 245 246 240 242 245 242 237 234 232 231 232 228 224 217 217 217 216 216 218 218 218 218 217 217 219 219 221 222 223 226 228 229 232 235 238 241 243 247 250 253
234 234 237 242 246 244 237 235 238 239 236 233 233 231 231 229 222 219 220 218 218 219 218 219 220 220 220 220 221 222 223 224 225 228 230 232 234 238 241 243 245 248 251 255
232 233 236 240 242 237 231 233 235 234 231 230 231 231 228 224 221 222 221 219 218 219 220 220 222 223 224 224 225 226 227 227 228 231 233 234 237 239 242 245 247 250 253 256
230 232 236 237 236 233 229 230 230 229 231 231 232 231 226 222 223 224 224 222 220 220 221 224 226 226 227 228 229 228 230 232 231 232 234 237 239 242 244 247 249 252 255 258
227 228 231 232 231 228 228 229 229 228 230 232 232 232 230 226 226 226 224 223 221 220 222 225 226 227 229 231 231 231 233 234 235 235 236 238 241 243 246 249 251 254 257 260
226 228 231 232 231 229 228 230 231 228 228 231 234 236 235 233 231 228 226 223 222 224 227 228 228 229 229 232 233 233 234 235 236 237 238 240 244 246 249 251 254 256 259 262
226 229 231 232 233 232 229 228 230 230 230 233 236 237 236 234 232 229 227 227 227 228 230 231 231 230 231 233 235 236 235 237 238 239 241 244 247 250 253 255 257 259 261 264
Height
5837 5839 5839 5840 5841 5843 5844 5845 5847 5848 5850 5852 5853 5855 5857 5858 5860 5861 5863 5865 5867 5869 5870 5872 5874 5876 5878 5880 5881 5883 5884 5885 5885 5886 5886 5886 5885 5884 5883 5881 5880 5878 5876 5873
5835 5836 5837 5837 5839 5840 5841 5843 5844 5846 5847 5849 5851 5853 5854 5856 5858 5859 5861 5863 5865 5867 5869 5871 5873 5875 5878 5879 5881 5882 5884 5885 5886 5886 5886 5886 5886 5885 5884 5882 5881 5879 5877 5875
5832 5834 5834 5835 5836 5837 5839 5840 5841 5843 5844 5846 5848 5850 5852 5854 5856 5857 5859 5861 5863 5865 5868 5870 5872 5874 5877 5879 5880 5882 5883 5885 5886 5886 5886 5887 5886 5885 5885 5884 5882 5881 5879 5877
5829 5830 5831 5832 5834 5835 5836 5837 5838 5840 5842 5843 5846 5848 5850 5852 5854 5855 5857 5859 5861 5863 5866 5868 5871 5873 5876 5878 5880 5881 5883 5884 5885 5886 5887 5887 5887 5886 5886 5885 5883 5882 5881 5879
5827 5827 5829 5830 5831 5832 5833 5834 5836 5837 5839 5841 5843 5845 5849 5849 5851 5853 5855 5857 5859 5862 5864 5867 5869 5872 5874 5877 5879 5881 5882 5884 5885 5886 5887 5887 5887 5887 5886 5886 5885 5884 5882 5881
5824 5825 5826 5827 5828 5829 5830 5832 5833 5834 5836 5839 5840 5842 5845 5847 5849 5851 5852 5855 5857 5860 5862 5865 5868 5871 5873 5876 5878 5880 5882 5883 5885 5886 5887 5887 5887 5887 5887 5886 5886 5885 5884 5883
5821 5822 5823 5824 5825 5827 5828 5830 5831 5832 5833 5836 5837 5839 5843 5844 5846 5848 5850 5852 5854 5857 5860 5863 5866 5869 5872 5875 5877 5879 5881 5883 5884 5885 5887 5887 5888 5888 5888 5887 5887 5886 5885 5884
5818 5820 5821 5822 5823 5824 5825 5827 5829 5830 5832 5833 5835 5836 5841 5841 5843 5845 5847 5850 5852 5855 5858 5861 5864 5867 5870 5873 5876 5878 5880 5882 5883 5885 5886 5887 5888 5888 5888 5888 5888 5887 5886 5885
5815 5817 5818 5819 5820 5821 5823 5824 5826 5828 5829 5831 5833 5835 5837 5839 5840 5842 5845 5847 5850 5852 5855 5858 5862 5865 5868 5871 5874 5876 5878 5880 5882 5884 5885 5887 5888 5888 5888 5888 5888 5888 5887 5887
5812 5814 5815 5816 5817 5819 5821 5822 5823 5825 5826 5828 5830 5832 5835 5836 5837 5840 5842 5845 5847 5850 5853 5856 5859 5863 5866 5869 5872 5875 5877 5879 5881 5883 5884 5886 5887 5888 5888 5889 5889 5889 5888 5888
5809 5811 5813 5814 5815 5816 5818 5820 5820 5822 5824 5826 5827 5832 5832 5833 5835 5837 5839 5842 5844 5847 5850 5853 5856 5860 5863 5867 5870 5873 5875 5877 5879 5881 5883 5885 5886 5887 5888 5889 5889 5889 5889 5889
5806 5808 5809 5811 5812 5813 5815 5816 5818 5820 5821 5822 5824 5830 5829 5830 5832 5834 5836 5839 5841 5844 5847 5850 5854 5857 5861 5864 5868 5870 5873 5875 5878 5880 5882 5883 5885 5886 5887 5888 5889 5889 5889 5889
5803 5806 5807 5808 5811 5811 5812 5813 5815 5816 5818 5819 5821 5827 5826 5827 5828 5831 5833 5836 5838 5841 5844 5847 5851 5855 5858 5862 5865 5868 5870 5873 5876 5878 5880 5882 5883 5885 5886 5887 5888 5888 5889 5889
5800 5802 5805 5806 5806 5807 5809 5810 5811 5813 5814 5816 5819 5821 5822 5823 5825 5827 5830 5832 5835 5838 5841 5844 5848 5852 5856 5859 5862 5865 5868 5871 5873 5876 5878 5880 5882 5883 5884 5885 5886 5887 5888 5888
5796 5799 5800 5802 5803 5804 5805 5807 5808 5809 5811 5813 5815 5817 5819 5820 5822 5824 5826 5829 5832 5835 5838 5841 5845 5849 5852 5856 5859 5862 5865 5868 5871 5873 5876 5878 5880 5881 5883 5884 5885 5886 5886 5887
5792 5795 5797 5798 5799 5800 5802 5804 5805 5806 5808 5810 5811 5814 5815 5817 5819 5821 5823 5826 5829 5832 5835 5839 5842 5846 5849 5853 5856 5859 5862 5865 5868 5871 5873 5875 5877 5879 5881 5882 5883 5884 5885 5885
5789 5791 5793 5795 5796 5797 5799 5801 5801 5803 5805 5806 5808 5811 5811 5813 5815 5818 5820 5822 5825 5828 5832 5835 5838 5842 5846 5849 5852 5855 5858 5861 5865 5868 5870 5872 5874 5876 5878 5879 5880 5882 5882 5883
5785 5787 5789 5791 5793 5794 5799 5797 5797 5799 5801 5802 5804 5806 5807 5809 5811 5814 5816 5819 5822 5825 5828 5832 5835 5839 5842 5846 5849 5852 5855 5858 5861 5864 5867 5869 5871 5873 5875 5876 5878 5879 5880 5880
5781 5783 5785 5787 5788 5790 5794 5794 5794 5795 5797 5799 5800 5803 5804 5805 5808 5811 5814 5816 5819 5822 5825 5829 5832 5835 5838 5842 5845 5849 5852 5855 5858 5860 5863 5865 5868 5870 5871 5873 5874 5875 5876 5877
5777 5779 5782 5783 5785 5787 5791 5791 5791 5793 5794 5796 5797 5799 5801 5802 5805 5809 5811 5814 5816 5819 5822 5825 5828 5831 5835 5838 5842 5845 5848 5851 5854 5856 5859 5861 5864 5866 5868 5869 5871 5872 5873 5874
5773 5775 5778 5779 5781 5783 5787 5787 5788 5791 5793 5793 5794 5795 5798 5800 5803 5806 5808 5810 5813 5816 5819 5822 5825 5828 5832 5835 5838 5841 5844 5847 5850 5852 5855 5858 5860 5862 5864 5865 5867 5868 5869 5870
5768 5771 5773 5775 5777 5782 5783 5784 5785 5787 5788 5789 5791 5792 5794 5797 5799 5801 5804 5807 5810 5813 5816 5819 5822 5825 5828 5831 5834 5837 5840 5843 5845 5848 5851 5853 5855 5857 5859 5861 5862 5863 5864 5865
5764 5768 5770 5773 5776 5777 5778 5780 5781 5783 5785 5786 5788 5790 5791 5793 5795 5798 5801 5803 5806 5809 5812 5815 5818 5821 5824 5827 5830 5833 5836 5838 5841 5843 5846 5848 5851 5853 5854 5856 5857 5858 5859 5860
5759 5762 5764 5767 5770 5773 5774 5776 5778 5780 5782 5783 5785 5787 5788 5790 5792 5795 5797 5800 5803 5806 5809 5811 5815 5818 5821 5823 5826 5829 5831 5834 5836 5838 5841 5843 5845 5847 5849 5850 5851 5853 5853 5854
5754 5756 5759 5763 5766 5768 5770 5772 5774 5776 5778 5780 5782 5784 5785 5787 5789 5792 5794 5797 5799 5802 5805 5808 5810 5813 5816 5819 5821 5824 5826 5829 5831 5833 5836 5838 5840 5842 5843 5844 5846 5846 5847 5848
5748 5752 5755 5759 5762 5764 5766 5768 5770 5772 5774 5777 5779 5780 5782 5784 5786 5788 5791 5793 5796 5798 5801 5803 5806 5808 5811 5814 5816 5818 5821 5823 5826 5828 5830 5832 5834 5836 5837 5838 5839 5840 5841 5841